TimeEST,TemperatureF,Dew PointF,Humidity,Sea Level PressureIn,VisibilityMPH,Wind Direction,Wind SpeedMPH,Gust SpeedMPH,PrecipitationIn,Events,Conditions,WindDirDegrees,DateUTC
12:15 AM,59.0,59.0,100,29.97,4.0,Calm,Calm,-,N/A,,Heavy Drizzle,0,2013-01-17 05:15:00
12:35 AM,59.0,59.0,100,29.97,4.0,Calm,Calm,-,N/A,,Drizzle,0,2013-01-17 05:35:00
12:55 AM,59.0,59.0,100,29.96,4.0,Calm,Calm,-,N/A,,Drizzle,0,2013-01-17 05:55:00
1:15 AM,59.0,59.0,100,29.96,5.0,Calm,Calm,-,N/A,Rain,Light Rain,0,2013-01-17 06:15:00
1:35 AM,59.0,59.0,100,29.95,7.0,Calm,Calm,-,N/A,,Drizzle,0,2013-01-17 06:35:00
1:55 AM,59.0,59.0,100,29.95,4.0,Calm,Calm,-,N/A,Rain,Rain,0,2013-01-17 06:55:00
2:15 AM,59.0,59.0,100,29.95,7.0,Calm,Calm,-,N/A,Rain,Light Rain,0,2013-01-17 07:15:00
2:35 AM,59.0,59.0,100,29.94,3.0,Calm,Calm,-,N/A,,Heavy Drizzle,0,2013-01-17 07:35:00
2:55 AM,59.0,59.0,100,29.94,7.0,Calm,Calm,-,N/A,Rain,Rain,0,2013-01-17 07:55:00
3:15 AM,59.0,59.0,100,29.93,4.0,Calm,Calm,-,N/A,Rain,Heavy Rain,0,2013-01-17 08:15:00
3:35 AM,59.0,59.0,100,29.91,5.0,ESE,6.9,-,N/A,,Drizzle,120,2013-01-17 08:35:00
3:55 AM,59.0,59.0,100,29.91,7.0,SSE,4.6,-,N/A,Rain,Light Rain,150,2013-01-17 08:55:00
4:15 AM,60.8,60.8,100,29.90,2.5,SSE,3.5,-,N/A,Rain,Rain,150,2013-01-17 09:15:00
4:35 AM,60.8,60.8,100,29.90,10.0,South,3.5,-,N/A,,Overcast,190,2013-01-17 09:35:00
4:55 AM,60.8,60.8,100,29.88,10.0,South,5.8,-,N/A,,Overcast,170,2013-01-17 09:55:00
5:15 AM,60.8,60.8,100,29.88,10.0,South,5.8,-,N/A,,Overcast,170,2013-01-17 10:15:00
5:35 AM,60.8,60.8,100,29.87,10.0,South,6.9,-,N/A,,Drizzle,170,2013-01-17 10:35:00
5:55 AM,62.6,62.6,100,29.87,7.0,South,6.9,-,N/A,Rain,Light Rain,180,2013-01-17 10:55:00
6:15 AM,62.6,62.6,100,29.87,10.0,South,8.1,-,N/A,,Overcast,180,2013-01-17 11:15:00
6:35 AM,62.6,62.6,100,29.86,10.0,South,9.2,-,N/A,Rain,Light Rain,190,2013-01-17 11:35:00
6:55 AM,62.6,62.6,100,29.85,5.0,SSW,4.6,-,N/A,Rain,Light Rain,200,2013-01-17 11:55:00
7:15 AM,62.6,62.6,100,29.85,4.0,SSW,4.6,-,N/A,Rain,Rain,210,2013-01-17 12:15:00
7:35 AM,62.6,62.6,100,29.84,3.0,South,4.6,-,N/A,Rain,Light Rain,190,2013-01-17 12:35:00
7:55 AM,62.6,62.6,100,29.83,4.0,South,8.1,-,N/A,,Drizzle,190,2013-01-17 12:55:00
8:15 AM,62.6,62.6,100,29.84,4.0,SW,13.8,-,N/A,Rain,Rain,230,2013-01-17 13:15:00
8:35 AM,59.0,57.2,94,29.85,4.0,WSW,19.6,26.5,N/A,Rain,Light Rain,240,2013-01-17 13:35:00
8:55 AM,55.4,55.4,100,29.87,2.0,WSW,20.7,29.9,N/A,,Drizzle,240,2013-01-17 13:55:00
9:15 AM,53.6,53.6,100,29.88,1.8,WSW,13.8,18.4,N/A,,Heavy Drizzle,250,2013-01-17 14:15:00
9:35 AM,51.8,51.8,100,29.89,7.0,WSW,16.1,24.2,N/A,Rain,Light Rain,250,2013-01-17 14:35:00
9:55 AM,51.8,51.8,100,29.90,1.8,WSW,11.5,-,N/A,Rain,Rain,240,2013-01-17 14:55:00
10:15 AM,50.0,50.0,100,29.90,4.0,WSW,11.5,-,N/A,,Drizzle,250,2013-01-17 15:15:00
10:35 AM,48.2,46.4,93,29.90,10.0,WSW,12.7,21.9,N/A,,Overcast,250,2013-01-17 15:35:00
10:55 AM,46.4,46.4,100,29.89,10.0,SW,15.0,24.2,N/A,,Overcast,230,2013-01-17 15:55:00
11:15 AM,46.4,46.4,100,29.88,10.0,WSW,18.4,24.2,N/A,,Overcast,250,2013-01-17 16:15:00
11:35 AM,46.4,44.6,93,29.88,10.0,WSW,15.0,23.0,N/A,,Overcast,250,2013-01-17 16:35:00
11:55 AM,44.6,44.6,100,29.88,5.0,WSW,16.1,26.5,N/A,,Overcast,250,2013-01-17 16:55:00
12:15 PM,44.6,44.6,100,29.88,4.0,WSW,16.1,25.3,N/A,,Drizzle,250,2013-01-17 17:15:00
12:35 PM,42.8,42.8,100,29.87,10.0,WSW,20.7,27.6,N/A,,Overcast,250,2013-01-17 17:35:00
12:55 PM,42.8,42.8,100,29.87,5.0,WSW,17.3,27.6,N/A,,Overcast,240,2013-01-17 17:55:00
1:15 PM,42.8,41.0,93,29.88,7.0,WSW,21.9,26.5,N/A,,Overcast,240,2013-01-17 18:15:00
1:35 PM,41.0,39.2,93,29.88,10.0,WSW,18.4,28.8,N/A,,Overcast,250,2013-01-17 18:35:00
1:55 PM,41.0,39.2,93,29.86,10.0,WSW,12.7,24.2,N/A,,Overcast,250,2013-01-17 18:55:00
2:15 PM,41.0,39.2,93,29.87,7.0,West,18.4,21.9,N/A,,Overcast,260,2013-01-17 19:15:00
2:35 PM,41.0,37.4,87,29.87,10.0,WSW,23.0,29.9,N/A,,Overcast,250,2013-01-17 19:35:00
2:55 PM,41.0,37.4,87,29.88,10.0,WSW,17.3,31.1,N/A,,Overcast,250,2013-01-17 19:55:00
3:15 PM,41.0,37.4,87,29.88,10.0,WSW,16.1,23.0,N/A,,Overcast,250,2013-01-17 20:15:00
3:35 PM,41.0,37.4,87,29.88,10.0,West,12.7,25.3,N/A,,Overcast,260,2013-01-17 20:35:00
3:55 PM,41.0,37.4,87,29.89,7.0,WSW,18.4,24.2,N/A,,Light Drizzle,250,2013-01-17 20:55:00
4:15 PM,39.2,37.4,93,29.91,10.0,WSW,20.7,25.3,N/A,,Overcast,250,2013-01-17 21:15:00
4:35 PM,39.2,35.6,87,29.92,10.0,West,18.4,25.3,N/A,,Overcast,260,2013-01-17 21:35:00
4:55 PM,37.4,35.6,93,29.94,10.0,West,16.1,26.5,N/A,,Overcast,270,2013-01-17 21:55:00
5:55 PM,37.4,35.6,93,29.97,10.0,WNW,17.3,25.3,N/A,,Overcast,290,2013-01-17 22:55:00
6:35 PM,37.4,35.6,93,30.01,10.0,WNW,13.8,25.3,N/A,,Overcast,290,2013-01-17 23:35:00
7:35 PM,39.2,35.6,87,30.05,10.0,NW,16.1,20.7,N/A,,Overcast,310,2013-01-18 00:35:00
8:15 PM,39.2,35.6,87,30.09,10.0,NNW,11.5,18.4,N/A,,Overcast,340,2013-01-18 01:15:00
8:55 PM,41.0,37.4,87,30.12,10.0,NW,8.1,-,N/A,,Overcast,320,2013-01-18 01:55:00
9:15 PM,41.0,37.4,87,30.14,10.0,NNW,6.9,-,N/A,,Overcast,340,2013-01-18 02:15:00
9:35 PM,41.0,37.4,87,30.15,10.0,NNW,9.2,-,N/A,,Overcast,330,2013-01-18 02:35:00
9:55 PM,41.0,37.4,87,30.16,10.0,NNW,8.1,16.1,N/A,,Overcast,340,2013-01-18 02:55:00
10:15 PM,41.0,37.4,87,30.17,10.0,NNW,8.1,16.1,N/A,,Overcast,340,2013-01-18 03:15:00
10:35 PM,41.0,37.4,87,30.19,10.0,North,6.9,-,N/A,,Overcast,360,2013-01-18 03:35:00
10:55 PM,41.0,37.4,87,30.20,10.0,North,6.9,-,N/A,,Scattered Clouds,350,2013-01-18 03:55:00